Weather History for Capo Carbonara, Italy

Change the Weather History Date:

Thursday, December 5, 2013

  Actual Average Record
Temperature  
Mean Temperature 58 °F -  
Max Temperature 63 °F - - ()
Min Temperature 53 °F - - ()
Degree Days  
Heating Degree Days 7    
Growing Degree Days 8 (Base 50)    
Moisture  
Dew Point 50 °F    
Average Humidity 76    
Maximum Humidity 94    
Minimum Humidity 58    
Precipitation  
Precipitation 0.00 in - - ()
Sea Level Pressure  
Sea Level Pressure 30.17 in    
Wind  
Wind Speed 8 mph ()    
Max Wind Speed 13 mph    
Max Gust Speed -    
Visibility 7.7 miles    
Events      
T = Trace of Precipitation, MM = Missing Value Source: Averaged Metar Reports

Daily Weather History Graph

Daily Weather History Graph

Search for Another Location

Airport:

Trip Planner

Search our weather history database for the weather conditions in past years. The results will help you decide how hot, cold, wet, or windy it might be!

Date:

Astronomy

Dec. 05, 2013 Rise Set
Actual Time 7:25 AM CET 4:59 PM CET
Civil Twilight 6:56 AM CET 5:28 PM CET
Nautical Twilight 6:22 AM CET 6:02 PM CET
Astronomical Twilight 5:50 AM CET 6:34 PM CET
Moon 9:32 AM CET (12/5) 7:59 PM CET (12/5)
Length of Visible Light 10h 32m
Length of Day
9h 33m
Waxing Crescent, 9% of the Moon is Illuminated
Dec 5
Waxing Crescent
Dec 9
First Quarter
Dec 17
Full
Dec 25
Last Quarter
Jan 1
New

Hourly Weather History & Observations

Time (CET) Temp. Dew Point Humidity Pressure Visibility Wind Dir Wind Speed Gust Speed Precip Events Conditions
12:55 AM 55.4 °F 50.0 °F 82% 30.18 in - West 11.5 mph - N/A   Clear
1:00 AM 55 °F 50 °F 78% 30.21 in 12 mi West 11.5 mph - -  
1:55 AM 55.4 °F 50.0 °F 82% 30.18 in 6.2 mi West 8.1 mph - N/A   Partly Cloudy
2:55 AM 55.4 °F 50.0 °F 82% 30.18 in 6.2 mi West 9.2 mph - N/A   Partly Cloudy
3:55 AM 57.2 °F 53.6 °F 88% 30.18 in 6.2 mi West 9.2 mph - N/A   Partly Cloudy
4:00 AM 57 °F 53 °F 81% 30.19 in 12 mi West 9.2 mph - -   Scattered Clouds
4:55 AM 57.2 °F 53.6 °F 88% 30.18 in 6.2 mi West 10.4 mph - N/A   Partly Cloudy
5:55 AM 55.4 °F 53.6 °F 94% 30.18 in 6.2 mi West 8.1 mph - N/A   Partly Cloudy
6:55 AM 55.4 °F 53.6 °F 94% 30.18 in 6.2 mi West 9.2 mph - N/A   Partly Cloudy
7:00 AM 55 °F 53 °F 92% 30.19 in 12 mi West 9.2 mph - -   Scattered Clouds
7:55 AM 55.4 °F 48.2 °F 77% 30.18 in 6.2 mi WNW 9.2 mph - N/A   Scattered Clouds
8:55 AM 55.4 °F 46.4 °F 72% 30.18 in 6.2 mi NW 6.9 mph - N/A   Partly Cloudy
9:55 AM 57.2 °F 46.4 °F 67% 30.21 in 6.2 mi Calm Calm - N/A   Partly Cloudy
10:00 AM 57 °F 47 °F 61% 30.22 in 12 mi Calm Calm - -   Scattered Clouds
10:55 AM 62.6 °F 51.8 °F 68% 30.21 in 6.2 mi Calm Calm - N/A   Partly Cloudy
11:55 AM 62.6 °F 51.8 °F 68% 30.18 in 6.2 mi West 5.8 mph - N/A   Partly Cloudy
12:55 PM 62.6 °F 51.8 °F 68% 30.18 in 6.2 mi SW 10.4 mph - N/A   Partly Cloudy
1:00 PM 63 °F 52 °F 58% 30.18 in 12 mi SW 10.4 mph - -   Scattered Clouds
1:55 PM 62.6 °F 51.8 °F 68% 30.15 in 6.2 mi SW 12.7 mph - N/A   Partly Cloudy
2:55 PM 62.6 °F 51.8 °F 68% 30.15 in 6.2 mi SW 11.5 mph - N/A   Partly Cloudy
3:55 PM 60.8 °F 51.8 °F 72% 30.12 in 6.2 mi SW 10.4 mph - N/A   Partly Cloudy
4:00 PM 62 °F 53 °F 63% 30.15 in 12 mi SW 10.4 mph - -   Scattered Clouds
4:55 PM 59.0 °F 51.8 °F 77% 30.15 in 6.2 mi WSW 6.9 mph - N/A   Partly Cloudy
5:55 PM 57.2 °F 50.0 °F 77% 30.15 in 6.2 mi Calm Calm - N/A   Scattered Clouds
6:55 PM 55.4 °F 50.0 °F 82% 30.15 in 6.2 mi NNE 6.9 mph - N/A   Mostly Cloudy
7:00 PM 56 °F 49 °F 72% 30.16 in 12 mi NNE 6.9 mph - -   Mostly Cloudy
7:55 PM 57.2 °F 48.2 °F 72% 30.15 in 6.2 mi West 5.8 mph - N/A   Scattered Clouds
8:55 PM 55.4 °F 46.4 °F 72% 30.15 in 6.2 mi West 6.9 mph - N/A   Scattered Clouds
9:55 PM 55.4 °F 48.2 °F 77% 30.15 in 6.2 mi West 11.5 mph - N/A   Mostly Cloudy
10:00 PM 56 °F 49 °F 69% 30.17 in 12 mi West 11.5 mph - -   Mostly Cloudy
10:55 PM 55.4 °F 48.2 °F 77% 30.15 in 6.2 mi West 9.2 mph - N/A   Scattered Clouds
11:55 PM 55.4 °F 48.2 °F 77% 30.15 in 6.2 mi West 11.5 mph - N/A   Scattered Clouds